Tracking 19245 objects as of 17-Aug-2018
HD Live streaming from Space Station
objects crossing your sky now

FENGYUN 1C DEB

Track FENGYUN 1C DEB now!
10-day predictions


NORAD ID: 29843
Int'l Code: 1999-025EM
Perigee: 670.4 km
Apogee: 966.1 km
Inclination: 98.8 °
Period: 101.1 minutes
Semi major axis: 7189 km
RCS: 0.054 m2 (small)
Launch date: May 10, 1999
Source: People's Republic of China (PRC)
Launch site: Taiyaun Space Center, China (TSC)

Note: This is SATELLITE DEBRIS
aabbcc
Your satellite tracking list
Your tracking list is empty




NASA's NSSDC Master Catalog

Two Line Element Set (TLE):
1 29843U 99025EM  18228.87558939 -.00000001 +00000-0 +16205-4 0  9996
2 29843 098.8202 334.8937 0205692 096.7811 049.9565 14.24226207601746
Source of the keplerian elements: AFSPC